Home > Weather > Porto Velho > Past weeks

Flag for Brazil Weather for the Past 2 Weeks in Porto Velho, Rondônia, Brazil

Now
82 °F

Sunny.


Feels Like: 88 °F
Forecast: 77 / 94 °F
Wind: 3 mph from Southeast

Location: Porto Velho Aeroporto

Current Time: Feb 10, 2016 at 9:22:43 AM

Latest Report: Feb 10, 2016 at 8:00 AM


Visibility: 10 mi

Pressure: 29.92 "Hg

Humidity: 74%

Dew point: 73 °F

Location of Porto VelhoLocation

Historic Weather in Porto Velho — Graph

°F

Porto Velho Temperature Yesterday

Maximum temperature yesterday: 95 °F (at 1:00 PM)
Minimum temperature yesterday: 75 °F (at 2:00 AM)
Average temperature yesterday: 84 °F

High & Low Weather Summary for the Past Weeks

 TemperatureHumidityPressure
High95 °F (Feb 9, 1:00 PM)100% (Feb 1, 3:00 PM)29.98 "Hg (Feb 1, 3:00 PM)
Low45 °F (Feb 1, 3:00 PM)44% (Feb 9, 3:00 PM)29.71 "Hg (Jan 27, 5:00 PM)
Average80 °F81%29.85 "Hg
* Reported Jan 26 8:00 AM — Feb 10 8:00 AM, Porto Velho, Weather by CustomWeather, © 2016

Note: Actual official high and low records may vary slightly from our data, if they occured in-between our weather recording intervals... More about our weather records

Advertising

Porto Velho Weather History for the Previous 24 Hours

 ConditionsComfort  
Time TempWeatherWind HumidityBarometerVisibility
8:00 AM
Wed, Feb 10
82 °FSunny.3 mph74%29.92 "Hg10 mi
7:00 AM77 °FSunny.No wind94%29.86 "Hg10 mi
6:00 AM75 °FClear.No wind94%29.86 "Hg10 mi
5:00 AM77 °FClear.No wind89%29.86 "Hg10 mi
4:00 AM77 °FClear.2 mph89%29.83 "Hg10 mi
3:00 AM77 °FClear.No wind94%29.86 "Hg10 mi
2:00 AM77 °FClear.2 mph89%29.86 "Hg10 mi
1:00 AM79 °FPassing clouds.No wind84%29.86 "HgN/A
12:00 AM79 °FPassing clouds.2 mph84%29.89 "HgN/A
11:00 PM
Tue, Feb 9
79 °FPassing clouds.No wind84%29.89 "HgN/A
10:00 PM79 °FPassing clouds.3 mph84%29.89 "HgN/A
9:00 PM81 °FPassing clouds.No wind84%29.86 "HgN/A
8:00 PM82 °FPassing clouds.6 mph79%29.83 "HgN/A
7:00 PM86 °FPassing clouds.1 mph66%29.80 "HgN/A
6:00 PM91 °FScattered clouds.6 mph52%29.77 "HgN/A
5:00 PM93 °FScattered clouds.9 mph47%29.77 "HgN/A
4:00 PM95 °FScattered clouds.6 mph44%29.77 "HgN/A
3:00 PM95 °FScattered clouds.8 mph44%29.77 "HgN/A
2:00 PM95 °FScattered clouds.7 mph47%29.83 "HgN/A
1:00 PM95 °FScattered clouds.10 mph47%29.89 "HgN/A
12:00 PM91 °FScattered clouds.6 mph56%29.92 "HgN/A
11:00 AM91 °FPassing clouds.3 mph56%29.92 "HgN/A
10:00 AM90 °FSunny.2 mph59%29.95 "Hg10 mi
9:00 AM86 °FSunny.No wind66%29.95 "Hg10 mi
Weather by CustomWeather, © 2016

See weather overviewHow to use our weather pages